Overview Statistics Trail Chart Weather Telemetry Raw packets
 

This is the latest recevied weather packets stored in our database for station/object WABI. If no packets are shown the sender has not sent any weather packets the latest 10 day(s).

<< 1 2 3 4 5 >>
Time Temp. Humidity Pressure Rain* Wind** Luminosity Snow
1788201113 22.78° C 99% 1 hPa 0 mm - - -
1788199157 22.78° C 99% 1 hPa 0 mm - - -
1788197166 22.78° C 99% 1 hPa 0 mm - - -
1788192882 22.78° C 99% 1 hPa 0 mm - - -
1788179173 27.22° C 79% 1 hPa 0 mm - - -
1788177172 28.89° C 79% 1 hPa 0 mm - - -
1788172944 28.89° C 79% 1 hPa 0 mm - - -
1788170923 28.89° C 79% 1 hPa 0 mm - - -
1788168769 30° C 75% 1 hPa 0 mm - - -
1788166572 31.11° C 70% 1 hPa 0 mm - - -
1788164426 31.11° C 66% 1 hPa 0 mm - - -
1788162293 31.11° C 66% 1 hPa 0 mm - - -
1788160292 32.22° C 63% 1 hPa 0 mm - - -
1788158003 32.22° C 63% 1 hPa 0 mm - - -
1788153522 32.78° C 56% 1 hPa 0 mm - - -
1788151083 32.78° C 59% 1 hPa 0 mm - - -
1788149055 32.22° C 63% 1 hPa 0 mm - - -
1788146994 32.22° C 63% 1 hPa 0 mm - - -
1788144975 32.22° C 59% 1 hPa 0 mm - - -
1788142883 32.22° C 59% 1 hPa 0 mm - - -
1788140888 31.11° C 62% 1 hPa 0 mm - - -
1788138843 28.89° C 70% 1 hPa 0 mm - - -
1788136862 28.89° C 70% 1 hPa 0 mm - - -
1788134894 27.22° C 74% 1 hPa 0 mm - - -
1788132749 25° C 83% 1 hPa 0 mm - - -

* Rain latest hour (hover to see other rain measurements)
** Current wind speed in m/s (hover to see current wind gust speed)